Simultaneous Nadir Overpasses (SNOs) Predictions

Prediction of SNOs between NOAA-19 and NPP Satellite Orbit:

Table of predicted SNOs for the next 14.0 days since TLE Epoch: 8/4/2017
Index Date (NOAA-19) Time (NOAA-19) Lat,Lon (NOAA-19) SZA (NOAA-19 ) Date (NPP) Time (NPP) Lat,Lon (NPP) SZA (NPP ) Distance(km) Time Diff (sec)
1 08/13/2017 12:49:45 80.79, -62.23 69.80 08/13/2017 12:50:56 80.80, -62.11 69.76 2.43 71
2 08/13/2017 13:40:44 -80.79, 105.13 110.20 08/13/2017 13:41:41 -80.80, 105.27 110.25 2.63 57
3 08/13/2017 14:31:46 80.80, -87.54 69.80 08/13/2017 14:32:26 80.80, -87.50 69.78 1.05 40
4 08/13/2017 15:22:45 -80.80, 79.82 110.20 08/13/2017 15:23:11 -80.80, 79.89 110.23 1.23 26
5 08/13/2017 16:13:47 80.80,-112.86 69.80 08/13/2017 16:13:56 80.80,-112.89 69.80 0.46 9
6 08/13/2017 17:04:46 -80.80, 54.51 110.20 08/13/2017 17:04:41 -80.80, 54.50 110.20 0.70 5
7 08/13/2017 17:55:48 80.81,-138.18 69.81 08/13/2017 17:55:26 80.80,-138.27 69.83 1.80 22
8 08/13/2017 18:46:47 -80.81, 29.20 110.20 08/13/2017 18:46:11 -80.80, 29.11 110.18 1.95 36
9 08/13/2017 19:37:49 80.81,-163.49 69.81 08/13/2017 19:36:56 80.80,-163.66 69.85 3.18 53




NCC Satellite Simultaneous Nadir Overpasses (SNOs) Prediction Service
